Weather History for KFLD - January, 2013

Change the Weather History Date:

Wednesday, January 16, 2013

  Actual Average Record
Temperature  
Mean Temperature 25 °F -  
Max Temperature 32 °F 26 °F 50 °F (1953)
Min Temperature 18 °F 7 °F -23 °F (1982)
Degree Days  
Heating Degree Days 40    
Moisture  
Dew Point 18 °F    
Average Humidity 69    
Maximum Humidity 85    
Minimum Humidity 55    
Precipitation  
Precipitation 0.00 in - - ()
Sea Level Pressure  
Sea Level Pressure 29.90 in    
Wind  
Wind Speed 13 mph (WSW)    
Max Wind Speed 21 mph    
Max Gust Speed 33 mph    
Visibility 10 miles    
Events Snow    
Averages and records for this station are not official NWS values.
T = Trace of Precipitation, MM = Missing Value Source: NWS Daily Summary

Daily Weather History Graph

Daily Weather History Graph

Search for Another Location

Airport or City:

Trip Planner

Search our weather history database for the weather conditions in past years. The results will help you decide how hot, cold, wet, or windy it might be!

Date:

Astronomy

Jan. 16, 2013 Rise Set
Actual Time 7:24 AM CST 4:44 PM CST
Civil Twilight 6:52 AM CST 5:15 PM CST
Nautical Twilight 6:16 AM CST 5:51 PM CST
Astronomical Twilight 5:42 AM CST 6:25 PM CST
Moon 9:48 AM CST (1/16) 10:48 PM CST (1/16)
Length of Visible Light 10h 23m
Length of Day
9h 19m
Waxing Crescent, 28% of the Moon is Illuminated
Jan 16
Waxing Crescent
Jan 18
First Quarter
Jan 26
Full
Feb 3
Last Quarter
Feb 10
New

Hourly Weather History & Observations

Time (CST) Temp. Windchill Dew Point Humidity Pressure Visibility Wind Dir Wind Speed Gust Speed Precip Events Conditions
12:53 AM 19.0 °F 7.5 °F 10.9 °F 71% 30.04 in 10.0 mi SSW 10.4 mph - N/A   Clear
1:53 AM 19.0 °F 6.8 °F 10.0 °F 68% 30.01 in 10.0 mi SSW 11.5 mph - N/A   Clear
2:53 AM 18.0 °F 4.8 °F 10.0 °F 71% 29.99 in 10.0 mi SSW 12.7 mph - N/A   Clear
3:53 AM 19.0 °F 5.0 °F 9.0 °F 65% 29.93 in 10.0 mi SSW 15.0 mph 20.7 mph N/A   Clear
4:53 AM 19.0 °F 6.1 °F 9.0 °F 65% 29.92 in 10.0 mi SSW 12.7 mph - N/A   Clear
5:53 AM 19.0 °F 3.6 °F 8.1 °F 62% 29.86 in 10.0 mi SSW 18.4 mph 25.3 mph N/A   Clear
6:53 AM 19.9 °F 5.2 °F 9.0 °F 62% 29.85 in 10.0 mi SSW 17.3 mph 23.0 mph N/A   Clear
7:53 AM 21.9 °F 6.9 °F 10.0 °F 60% 29.81 in 10.0 mi SSW 19.6 mph 29.9 mph N/A   Overcast
8:53 AM 24.1 °F 10.1 °F 12.0 °F 60% 29.80 in 10.0 mi SW 18.4 mph 29.9 mph N/A   Overcast
9:53 AM 25.0 °F 10.6 °F 12.9 °F 60% 29.75 in 10.0 mi SW 20.7 mph 33.4 mph N/A   Overcast
10:53 AM 27.0 °F 14.7 °F 15.1 °F 61% 29.75 in 9.0 mi SW 16.1 mph 25.3 mph 0.00 in Snow Light Snow
11:53 AM 28.9 °F 16.9 °F 18.0 °F 64% 29.75 in 10.0 mi WSW 17.3 mph 25.3 mph 0.00 in   Overcast
1:42 PM 30.2 °F 19.3 °F 21.2 °F 69% 29.71 in 10.0 mi WSW 15.0 mph 21.9 mph N/A   Overcast
1:53 PM 30.9 °F 19.8 °F 21.9 °F 69% 29.76 in 10.0 mi WSW 16.1 mph 23.0 mph N/A   Overcast
2:53 PM 32.0 °F 23.0 °F 21.9 °F 66% 29.79 in 10.0 mi West 11.5 mph - N/A   Overcast
3:53 PM 32.0 °F 24.2 °F 23.0 °F 69% 29.82 in 10.0 mi West 9.2 mph - N/A   Overcast
4:53 PM 32.0 °F 25.6 °F 25.0 °F 75% 29.86 in 10.0 mi WSW 6.9 mph - N/A   Overcast
5:53 PM 32.0 °F 26.4 °F 26.1 °F 79% 29.89 in 9.0 mi West 5.8 mph - N/A   Overcast
6:06 PM 32.0 °F 25.6 °F 26.6 °F 80% 29.87 in 10.0 mi West 6.9 mph - N/A   Mostly Cloudy
6:53 PM 30.9 °F 22.8 °F 26.1 °F 82% 29.93 in 10.0 mi West 9.2 mph - N/A   Partly Cloudy
7:53 PM 30.9 °F 24.3 °F 27.0 °F 85% 29.97 in 10.0 mi West 6.9 mph - N/A   Overcast
8:53 PM 32.0 °F 23.6 °F 27.0 °F 82% 29.99 in 10.0 mi WNW 10.4 mph - N/A   Overcast
9:06 PM 32.0 °F 24.2 °F 26.6 °F 80% 29.95 in 10.0 mi WNW 9.2 mph - N/A   Overcast
9:53 PM 32.0 °F 23.6 °F 25.0 °F 75% 30.02 in 10.0 mi WNW 10.4 mph - N/A   Overcast
10:45 PM 26.6 °F 15.7 °F 17.6 °F 69% 30.01 in 10.0 mi WNW 12.7 mph - N/A   Scattered Clouds
10:53 PM 27.0 °F 16.1 °F 16.0 °F 63% 30.06 in 10.0 mi WNW 12.7 mph - N/A   Partly Cloudy
11:53 PM 25.0 °F 13.6 °F 10.9 °F 55% 30.09 in 10.0 mi NW 12.7 mph - N/A   Clear